Location: Bastelaar
(51.0950°N, 3.8602°E)
Time: 01:11:00
(UTC+00:00)

ARIANE 6 FM1 Upper Stage - Pass Details

Date: 27 January 2026
Orbit: 522 x 609 km, 62.0° (Epoch: 13 February)

Event Time Altitude Azimuth Distance (km) Brightness Sun altitude
Rises 17:32:25 0° 216° (SW) 2,704 7.1 -10.4°
Reaches altitude 10° 17:34:39 10° 214° (SW) 1,802 6.0 -10.7°
Maximum altitude 17:38:39 64° 133° (SE) 594 2.6 -11.3°
Enters shadow 17:41:43 16° 54° (NE) 1,436 4.2 -11.8°
